Palestine, TX

12:17 PM CDT on September 21, 2017 (GMT -0500)
Palestine Municipal

Weather History for KPSN - November, 2012

Change the Weather History Date:

Wednesday, November 7, 2012

  Actual Average (KTYR) Record (KTYR)
Temperature  
Mean Temperature 58 °F -  
Max Temperature 74 °F 65 °F 88 °F (1963)
Min Temperature 42 °F 47 °F 17 °F (1959)
Degree Days  
Heating Degree Days 7    
Growing Degree Days 8 (Base 50)    
Moisture  
Dew Point 39 °F    
Average Humidity 52    
Maximum Humidity 90    
Minimum Humidity 25    
Precipitation  
Precipitation 0.00 in - - ()
Sea Level Pressure  
Sea Level Pressure 30.15 in    
Wind  
Wind Speed 1 mph (NE)    
Max Wind Speed 7 mph    
Max Gust Speed -    
Visibility 10 miles    
Events      
Averages and records for this station are not official NWS values.
T = Trace of Precipitation, MM = Missing Value Source: NWS Daily Summary

Daily Weather History Graph

Daily Weather History Graph

Search for Another Location

Airport or City:

Trip Planner

Search our weather history database for the weather conditions in past years. The results will help you decide how hot, cold, wet, or windy it might be!

Date:

Astronomy

Nov. 07, 2012 Rise Set
Actual Time 6:44 AM CST 5:28 PM CST
Civil Twilight 6:19 AM CST 5:53 PM CST
Nautical Twilight 5:49 AM CST 6:22 PM CST
Astronomical Twilight 5:21 AM CST 6:51 PM CST
Moon 12:04 AM CST (11/7) 1:15 PM CST (11/7)
Length of Visible Light 11h 34m
Length of Day
10h 43m
Last Quarter, 43% of the Moon is Illuminated
Nov 7
Last Quarter
Nov 13
New
Nov 20
First Quarter
Nov 28
Full
Dec 6
Last Quarter

Hourly Weather History & Observations

Time (CST) Temp. Windchill Dew Point Humidity Pressure Visibility Wind Dir Wind Speed Gust Speed Precip Events Conditions
12:15 AM 45.5 °F - 42.1 °F 88% 30.13 in 10.0 mi Calm Calm - N/A   Clear
12:35 AM 46.4 °F - 41.4 °F 83% 30.14 in 10.0 mi Calm Calm - N/A   Clear
12:55 AM 45.1 °F - 41.7 °F 88% 30.14 in 10.0 mi Calm Calm - N/A   Clear
1:15 AM 45.7 °F - 40.8 °F 83% 30.14 in 10.0 mi Calm Calm - N/A   Clear
1:35 AM 45.0 °F - 40.6 °F 85% 30.15 in 10.0 mi Calm Calm - N/A   Clear
1:55 AM 45.5 °F - 40.6 °F 83% 30.15 in 10.0 mi Calm Calm - N/A   Clear
2:15 AM 44.8 °F - 40.6 °F 85% 30.15 in 10.0 mi Calm Calm - N/A   Clear
2:55 AM 43.9 °F - 40.6 °F 88% 30.15 in 10.0 mi Calm Calm - N/A   Clear
3:15 AM 45.1 °F - 40.8 °F 85% 30.15 in 10.0 mi Calm Calm - N/A   Clear
3:35 AM 43.9 °F - 39.4 °F 84% 30.15 in 10.0 mi Calm Calm - N/A   Clear
3:55 AM 43.2 °F - 39.9 °F 88% 30.15 in 10.0 mi Calm Calm - N/A   Clear
4:15 AM 44.8 °F - 40.5 °F 85% 30.15 in 10.0 mi Calm Calm - N/A   Clear
4:35 AM 43.5 °F - 38.7 °F 83% 30.15 in 10.0 mi Calm Calm - N/A   Clear
5:15 AM 44.4 °F 42.9 °F 39.7 °F 84% 30.15 in 10.0 mi NE 3.5 mph - N/A   Clear
5:35 AM 51.8 °F - 38.3 °F 60% 30.15 in 10.0 mi Calm Calm - N/A   Clear
5:55 AM 47.8 °F - 39.2 °F 72% 30.15 in 10.0 mi Calm Calm - N/A   Clear
6:15 AM 43.2 °F - 38.8 °F 85% 30.16 in 10.0 mi Calm Calm - N/A   Clear
6:35 AM 43.5 °F - 40.1 °F 88% 30.16 in 10.0 mi Calm Calm - N/A   Clear
6:55 AM 42.4 °F - 39.6 °F 90% 30.17 in 10.0 mi Calm Calm - N/A   Clear
7:15 AM 42.6 °F - 39.4 °F 88% 30.18 in 10.0 mi Calm Calm - N/A   Clear
7:35 AM 44.6 °F - 40.8 °F 87% 30.18 in 10.0 mi Calm Calm - N/A   Clear
7:55 AM 48.7 °F - 44.2 °F 84% 30.19 in 10.0 mi Calm Calm - N/A   Clear
8:15 AM 51.8 °F - 44.4 °F 76% 30.19 in 10.0 mi Calm Calm - N/A   Clear
8:35 AM 55.2 °F - 44.4 °F 67% 30.20 in 10.0 mi Calm Calm - N/A   Clear
8:55 AM 59.5 °F - 45.0 °F 59% 30.20 in 10.0 mi Calm Calm - N/A   Clear
9:15 AM 62.8 °F - 44.8 °F 52% 30.20 in 10.0 mi Calm Calm - N/A   Clear
9:35 AM 65.5 °F - 40.1 °F 39% 30.20 in 10.0 mi Calm Calm - N/A   Clear
9:55 AM 67.3 °F - 35.4 °F 31% 30.20 in 10.0 mi NE 5.8 mph - N/A   Clear
10:15 AM 67.8 °F - 34.9 °F 30% 30.20 in 10.0 mi ENE 5.8 mph - N/A   Clear
10:35 AM 69.4 °F - 32.0 °F 25% 30.20 in 10.0 mi ENE 6.9 mph - N/A   Clear
10:55 AM 69.6 °F - 34.0 °F 27% 30.20 in 10.0 mi NE 4.6 mph - N/A   Clear
11:15 AM 70.5 °F - 33.6 °F 26% 30.19 in 10.0 mi SSE 3.5 mph - N/A   Clear
11:35 AM 70.3 °F - 33.4 °F 26% 30.19 in 10.0 mi NNE 3.5 mph - N/A   Clear
11:55 AM 70.9 °F - 34.3 °F 26% 30.18 in 10.0 mi SSE 3.5 mph - N/A   Clear
12:15 PM 71.8 °F - 35.1 °F 26% 30.16 in 10.0 mi WNW 4.6 mph - N/A   Clear
12:35 PM 72.7 °F - 35.2 °F 25% 30.15 in 10.0 mi NW 3.5 mph - N/A   Clear
12:55 PM 73.0 °F - 36.1 °F 26% 30.14 in 10.0 mi West 3.5 mph - N/A   Clear
1:15 PM 72.9 °F - 35.8 °F 26% 30.13 in 10.0 mi Calm Calm - N/A   Clear
1:35 PM 73.4 °F - 36.3 °F 26% 30.12 in 10.0 mi Calm Calm - N/A   Clear
1:55 PM 74.7 °F - 37.2 °F 26% 30.11 in 10.0 mi North 3.5 mph - N/A   Clear
2:15 PM 74.7 °F - 37.4 °F 26% 30.11 in 10.0 mi NW 6.9 mph - N/A   Clear
2:35 PM 74.5 °F - 36.7 °F 25% 30.11 in 10.0 mi NNW 5.8 mph - N/A   Clear
2:55 PM 74.7 °F - 37.0 °F 26% 30.11 in 10.0 mi NNW 5.8 mph - N/A   Clear
3:15 PM 74.3 °F - 37.0 °F 26% 30.11 in 10.0 mi NW 3.5 mph - N/A   Clear
3:35 PM 74.3 °F - 37.4 °F 26% 30.11 in 10.0 mi West 4.6 mph - N/A   Clear
3:55 PM 73.9 °F - 37.2 °F 26% 30.11 in 10.0 mi NW 4.6 mph - N/A   Clear
4:15 PM 73.6 °F - 37.2 °F 27% 30.11 in 10.0 mi NW 3.5 mph - N/A   Clear
4:35 PM 73.0 °F - 37.6 °F 28% 30.11 in 10.0 mi NNW 3.5 mph - N/A   Clear
4:55 PM 71.1 °F - 39.7 °F 32% 30.11 in 10.0 mi NNE 3.5 mph - N/A   Clear
5:15 PM 68.7 °F - 38.8 °F 34% 30.11 in 10.0 mi NE 3.5 mph - N/A   Clear
5:35 PM 66.9 °F - 39.2 °F 36% 30.11 in 10.0 mi ENE 3.5 mph - N/A   Clear
5:55 PM 65.3 °F - 39.2 °F 38% 30.12 in 3.0 mi NE 4.6 mph - N/A   Haze
6:15 PM 62.4 °F - 40.3 °F 44% 30.12 in 10.0 mi Calm Calm - N/A   Clear
6:35 PM 63.0 °F - 38.8 °F 41% 30.12 in 4.0 mi NE 3.5 mph - N/A   Haze
6:55 PM 63.0 °F - 38.5 °F 40% 30.12 in 10.0 mi ENE 3.5 mph - N/A   Clear
7:15 PM 61.9 °F - 38.5 °F 42% 30.13 in 7.0 mi Calm Calm - N/A   Clear
7:35 PM 59.4 °F - 39.6 °F 48% 30.13 in 10.0 mi Calm Calm - N/A   Clear
7:55 PM 58.6 °F - 38.7 °F 47% 30.14 in 10.0 mi East 3.5 mph - N/A   Clear
8:15 PM 59.4 °F - 39.2 °F 47% 30.14 in 10.0 mi Calm Calm - N/A   Clear
8:35 PM 59.0 °F - 40.3 °F 50% 30.14 in 10.0 mi ESE 3.5 mph - N/A   Clear
8:55 PM 59.5 °F - 40.1 °F 49% 30.15 in 10.0 mi East 3.5 mph - N/A   Clear
9:15 PM 59.4 °F - 40.1 °F 49% 30.15 in 10.0 mi East 3.5 mph - N/A   Clear
9:35 PM 60.1 °F - 38.3 °F 44% 30.15 in 10.0 mi ESE 3.5 mph - N/A   Clear
9:55 PM 58.8 °F - 39.2 °F 48% 30.15 in 5.0 mi East 3.5 mph - N/A   Haze
10:15 PM 59.2 °F - 38.3 °F 46% 30.15 in 3.0 mi East 3.5 mph - N/A   Haze
10:35 PM 58.8 °F - 38.3 °F 47% 30.14 in 7.0 mi East 4.6 mph - N/A   Clear
10:55 PM 58.1 °F - 37.9 °F 47% 30.14 in 10.0 mi ESE 3.5 mph - N/A   Clear
11:15 PM 57.4 °F - 38.5 °F 49% 30.14 in 10.0 mi ESE 4.6 mph - N/A   Clear
11:35 PM 57.2 °F - 38.7 °F 50% 30.14 in 10.0 mi ESE 4.6 mph - N/A   Clear
11:55 PM 57.0 °F - 38.3 °F 50% 30.14 in 10.0 mi ESE 3.5 mph - N/A   Clear